{"data":{"norad_id":59335,"epoch":"2026-09-21T03:12:55.829664Z","epoch_age_seconds":107475,"freshness":"FRESH","line1":"1 59335U 24057R   26264.13397951  .00000662  00000+0  33564-4 0  9999","line2":"2 59335  43.0008 162.9684 0001128 268.1495  91.9227 15.27582615139730","mean_motion":15.27582615,"eccentricity":0.0001128,"inclination_deg":43.0008,"raan_deg":162.9684,"arg_perigee_deg":268.1495,"mean_anomaly_deg":91.9227,"bstar":3.3564e-5,"rev_number":13973,"period_min":94.266587342643,"perigee_km":482.2673248917,"apogee_km":483.81520670846,"semimajor_km":6861.1782658001,"source":"CELESTRAK","updated_at":"2026-09-22T09:00:48.900964Z"}}